This demonstration page uses our WeatherBlox Daily Observations layout. Learn more.

Left ArrowRight Arrow

39.08367, -84.50855

Hourly Observations for June 30, 2015

Temp ( °F °C ) Dew Point ( °F °C ) Humidity (%) Winds ( mph kmh ) Pressure ( in mb ) Visibility ( mi km ) Precip ( " mm )
12:53 am 00:53 Partly Cloudy 66 18.9 65 18.3 96 96 N N/A 29.84 1010 7 11 N/A
1:53 am 01:53 Mostly Clear 67 19.4 65 18.3 93 93 SSW 3 6 29.82 1010 10 16 0.01 0.25
2:53 am 02:53 Clear 65 18.3 64 17.8 97 97 N N/A 29.82 1010 9 14 N/A
3:53 am 03:53 Clear 66 18.9 65 18.3 96 96 N N/A 29.81 1010 10 16 N/A
4:53 am 04:53 Clear 63 17.2 63 17.2 100 100 S 5 7 29.82 1010 8 13 N/A
5:53 am 05:53 Clear 65 18.3 64 17.8 97 97 SSE 3 6 29.83 1010 10 16 N/A
6:53 am 06:53 Sunny 65 18.3 63 17.2 93 93 SE 5 7 29.85 1011 9 14 N/A
7:53 am 07:53 Sunny 67 19.4 65 18.3 93 93 S 5 7 29.87 1012 10 16 N/A
8:53 am 08:53 Sunny 70 21.1 66 18.9 87 87 SSW 9 15 29.88 1012 10 16 N/A
9:53 am 09:53 Sunny 72 22.2 66 18.9 82 82 SW 7 11 29.87 1012 10 16 N/A
10:53 am 10:53 Sunny 75 23.9 67 19.4 76 76 SW 9 15 29.86 1011 10 16 N/A
11:53 am 11:53 Mostly Cloudy 76 24.4 67 19.4 74 74 SSW 9 15 29.85 1011 10 16 N/A
12:53 pm 12:53 Cloudy 77 25 66 18.9 69 69 WSW 14 22 29.85 1011 10 16 N/A
1:26 pm 13:26 Mostly Cloudy with Thunderstorms 77 25 66 19 69 69 WSW 10 17 29.83 1010 9 14 N/A
1:53 pm 13:53 Cloudy with Thunderstorms 71 21.7 64 17.8 79 79 NNW 8 13 29.83 1010 6 10 0.03 0.76
2:20 pm 14:20 Cloudy with Strong Thunderstorms 66 19 64 18 94 94 W 28 44 29.88 1012 1 1 N/A
2:28 pm 14:28 Cloudy with Strong Thunderstorms 65 18.3 64 17.8 97 97 SW 21 33 29.85 1011 1 2 0.44 11.18
2:36 pm 14:36 Cloudy with Strong Thunderstorms 64 18 64 18 100 100 SW 14 22 29.83 1010 2 3 N/A
2:40 pm 14:40 Cloudy with Thunderstorms 64 18 N/A N/A WSW 13 20 29.83 1010 4 6 N/A
2:53 pm 14:53 Mostly Cloudy with Thunderstorms 66 19 N/A N/A WNW 8 13 29.81 1009 4 6 0.69 17.53
3:03 pm 15:03 Mostly Cloudy with Light Rain 64 18 59 15 83 83 SSW 8 13 29.83 1010 10 16 N/A
3:53 pm 15:53 Cloudy with Light Rain 65 18.3 60 15.6 84 84 SW 5 7 29.84 1011 10 16 0.28 7.11
4:53 pm 16:53 Mostly Sunny 65 18.3 59 15 81 81 SSW 7 11 29.83 1010 9 14 N/A
5:53 pm 17:53 Mostly Sunny 64 17.8 60 15.6 87 87 S 3 6 29.82 1010 9 14 N/A
6:53 pm 18:53 Mostly Sunny 64 17.8 59 15 84 84 SW 6 9 29.82 1010 9 14 N/A
7:53 pm 19:53 Mostly Sunny 66 18.9 60 15.6 81 81 WSW 3 6 29.83 1010 9 14 N/A
8:53 pm 20:53 Mostly Cloudy 65 18.3 58 14.4 78 78 N N/A 29.84 1010 9 14 N/A
9:53 pm 21:53 Clear 62 16.7 58 14.4 86 86 N N/A 29.85 1011 8 13 N/A
10:53 pm 22:53 Mostly Cloudy 64 17.8 60 15.6 87 87 SW 3 6 29.90 1013 7 11 N/A
11:53 pm 23:53 Partly Cloudy 63 17.2 58 14.4 84 84 SSW 5 7 29.88 1012 7 11 N/A

Powered by AerisWeather